ORBCOMM FM116 [+]

Last updated on Fri Dec 29 2023 00:02:54 GMT+0000 (Coordinated Universal Time)

1 41189U 15081L 23361.69156652 .00001039 00000+0 27058-3 0 9990 2 41189 46.9999 209.9501 0002084 122.4069 237.7017 14.56157333427261
UTC large
Height (km)
Speed (km/s)
/
Latitude / Longitude
Inclination (degrees)
Orbital Period (minutes)
Azimuth
Elevation
Range (km)
Doppler Factor

Next 0 passes for location: London (51.5072 / 0.1276)

Sorry there are no passes over London.